Overview Statistics Trail Chart Weather Telemetry Raw packets
 

This is the latest recevied weather packets stored in our database for station/object W7BTL. If no packets are shown the sender has not sent any weather packets the latest 10 day(s).

<< 43 44 45 46 47 48 49 >>
Time Temp. Humidity Pressure Rain* Wind** Luminosity Snow
1788367011 23.89° C 61% 1015.8 hPa 0 mm - 427 W/m² -
1788366711 23.89° C 62% 1016.1 hPa 0 mm - 510 W/m² -
1788366410 24.44° C 63% 1015.8 hPa 0 mm - 453 W/m² -
1788366104 23.89° C 64% 1016 hPa 0 mm - 454 W/m² -
1788365799 23.89° C 64% 1015.9 hPa 0 mm - 464 W/m² -
1788365495 23.89° C 62% 1015.9 hPa 0 mm - 419 W/m² -
1788365192 23.89° C 61% 1015.9 hPa 0 mm - 390 W/m² -
1788364886 23.89° C 62% 1015.8 hPa 0 mm - 373 W/m² -
1788364585 23.33° C 64% 1015.9 hPa 0 mm - 355 W/m² -
1788364284 23.33° C 64% 1015.8 hPa 0 mm - 334 W/m² -
1788363979 23.89° C 64% 1015.9 hPa 0 mm - 67 W/m² -
1788363674 23.33° C 66% 1015.9 hPa 0 mm - 71 W/m² -
1788363373 22.78° C 65% 1015.9 hPa 0 mm - 64 W/m² -
1788363068 22.78° C 68% 1015.9 hPa 0 mm - 253 W/m² -
1788362764 22.78° C 67% 1015.8 hPa 0 mm - 73 W/m² -
1788362459 22.22° C 67% 1016 hPa 0 mm - 57 W/m² -
1788362155 21.67° C 69% 1015.9 hPa 0 mm - 55 W/m² -
1788361855 21.67° C 70% 1016 hPa 0 mm - 176 W/m² -
1788361550 21.67° C 72% 1015.8 hPa 0 mm - 161 W/m² -
1788361246 21.67° C 70% 1016.2 hPa 0 mm - 148 W/m² -
1788360940 20.56° C 73% 1015.8 hPa 0 mm - 140 W/m² -
1788360640 20.56° C 75% 1015.9 hPa 0 mm - 121 W/m² -
1788360337 20° C 76% 1015.8 hPa 0 mm - 101 W/m² -
1788360037 19.44° C 77% 1015.9 hPa 0 mm - 88 W/m² -
1788359737 18.89° C 79% 1015.8 hPa 0 mm - 78 W/m² -

* Rain latest hour (hover to see other rain measurements)
** Current wind speed in m/s (hover to see current wind gust speed)